JIA5168 KPHL-KBTV

Flight info

Callsign JIA5168
Flight time 0h 58m
Altitude 33000
Route DITCH LUIGI HNNAH JFK CAM GRNMT
Aircraft CRJ9/M-SDFGIRWY/S

Departure

Time 2026-04-30 03:34
Airport Philadelphia International Airport (KPHL)

Arrival

Time 2026-04-30 04:32
Airport Patrick Leahy Burlington International Airport (KBTV)
Time Latitude Longitude Altitude Speed Heading
2026-04-30 03:17 39.88063 -75.23621 7 ft 0 kts 219°
2026-04-30 03:24 39.88074 -75.23610 7 ft 2 kts 219°
2026-04-30 03:25 39.88086 -75.23598 7 ft 2 kts 204°
2026-04-30 03:25 39.88100 -75.23595 7 ft 2 kts 181°
2026-04-30 03:25 39.88115 -75.23598 7 ft 2 kts 158°
2026-04-30 03:25 39.88123 -75.23602 7 ft 0 kts 157°
2026-04-30 03:30 39.88116 -75.23598 7 ft 2 kts 157°
2026-04-30 03:30 39.88096 -75.23566 7 ft 6 kts 108°
2026-04-30 03:30 39.88084 -75.23503 7 ft 7 kts 102°
2026-04-30 03:31 39.88083 -75.23445 8 ft 5 kts 48°
2026-04-30 03:31 39.88124 -75.23443 7 ft 7 kts 341°
2026-04-30 03:31 39.88187 -75.23473 7 ft 12 kts 339°
2026-04-30 03:31 39.88266 -75.23513 7 ft 12 kts 339°
2026-04-30 03:32 39.88346 -75.23553 7 ft 12 kts 339°
2026-04-30 03:32 39.88430 -75.23595 8 ft 15 kts 339°
2026-04-30 03:32 39.88553 -75.23655 7 ft 20 kts 339°
2026-04-30 03:32 39.88667 -75.23712 7 ft 13 kts 342°
2026-04-30 03:33 39.88732 -75.23681 7 ft 10 kts 63°
2026-04-30 03:33 39.88742 -75.23605 7 ft 8 kts 132°
2026-04-30 03:33 39.88694 -75.23573 7 ft 8 kts 158°
2026-04-30 03:33 39.88466 -75.23460 8 ft 71 kts 159°
2026-04-30 03:34 39.87785 -75.23120 9 ft 136 kts 159°
2026-04-30 03:34 39.86826 -75.22656 382 ft 155 kts 161°
2026-04-30 03:34 39.85778 -75.22166 1041 ft 165 kts 161°
2026-04-30 03:34 39.84708 -75.21639 1472 ft 170 kts 160°
2026-04-30 03:35 39.83537 -75.21066 1755 ft 185 kts 160°
2026-04-30 03:35 39.82269 -75.20434 2355 ft 209 kts 161°
2026-04-30 03:35 39.80830 -75.19663 2981 ft 234 kts 161°
2026-04-30 03:35 39.79330 -75.18795 3969 ft 243 kts 160°
2026-04-30 03:36 39.78021 -75.17329 4808 ft 269 kts 126°
2026-04-30 03:36 39.77585 -75.14907 5818 ft 288 kts 90°
2026-04-30 03:36 39.77663 -75.12354 6809 ft 289 kts 95°
2026-04-30 03:36 39.77667 -75.09747 7683 ft 297 kts 92°
2026-04-30 03:37 39.77760 -75.07045 8509 ft 305 kts 90°
2026-04-30 03:37 39.77881 -75.04262 9050 ft 318 kts 90°
2026-04-30 03:37 39.78019 -75.01382 9021 ft 319 kts 90°
2026-04-30 03:37 39.78157 -74.98491 9157 ft 319 kts 90°
2026-04-30 03:38 39.78289 -74.95650 9794 ft 312 kts 90°
2026-04-30 03:38 39.78419 -74.92835 10228 ft 312 kts 90°
2026-04-30 03:38 39.78549 -74.90009 10577 ft 319 kts 90°
2026-04-30 03:38 39.78685 -74.87109 11168 ft 320 kts 90°
2026-04-30 03:39 39.78814 -74.84248 11691 ft 322 kts 90°
2026-04-30 03:39 39.78948 -74.81314 12209 ft 327 kts 89°
2026-04-30 03:39 39.79081 -74.78372 12762 ft 330 kts 89°
2026-04-30 03:39 39.79216 -74.75393 13227 ft 335 kts 89°
2026-04-30 03:40 39.79634 -74.72403 13723 ft 342 kts 66°
2026-04-30 03:40 39.81043 -74.69949 14359 ft 340 kts 39°
2026-04-30 03:40 39.82938 -74.68122 14797 ft 346 kts 34°
2026-04-30 03:40 39.84869 -74.66259 15401 ft 346 kts 32°
2026-04-30 03:41 39.86772 -74.64394 16007 ft 348 kts 35°
2026-04-30 03:41 39.88731 -74.62472 16538 ft 352 kts 34°
2026-04-30 03:41 39.90682 -74.60550 17272 ft 349 kts 33°
2026-04-30 03:41 39.92631 -74.58629 17725 ft 356 kts 33°
2026-04-30 03:42 39.94589 -74.56684 18233 ft 359 kts 33°
2026-04-30 03:42 39.96604 -74.54702 18775 ft 361 kts 33°
2026-04-30 03:42 39.98637 -74.52697 19262 ft 364 kts 34°
2026-04-30 03:42 40.00660 -74.50692 19786 ft 365 kts 34°
2026-04-30 03:43 40.02694 -74.48674 20223 ft 369 kts 34°
2026-04-30 03:43 40.04749 -74.46636 20766 ft 369 kts 34°
2026-04-30 03:43 40.06794 -74.44614 21209 ft 372 kts 34°
2026-04-30 03:43 40.08866 -74.42549 21632 ft 374 kts 34°
2026-04-30 03:44 40.10952 -74.40478 22025 ft 377 kts 34°
2026-04-30 03:44 40.13023 -74.38419 22369 ft 380 kts 34°
2026-04-30 03:44 40.15146 -74.36304 22772 ft 380 kts 34°
2026-04-30 03:44 40.17258 -74.34199 23107 ft 383 kts 36°
2026-04-30 03:45 40.19365 -74.32099 23422 ft 385 kts 36°
2026-04-30 03:45 40.21493 -74.29974 23792 ft 385 kts 36°
2026-04-30 03:45 40.23636 -74.27834 24118 ft 387 kts 36°
2026-04-30 03:45 40.25779 -74.25692 24426 ft 389 kts 36°
2026-04-30 03:46 40.27935 -74.23535 24767 ft 390 kts 36°
2026-04-30 03:46 40.30096 -74.21371 25058 ft 391 kts 36°
2026-04-30 03:46 40.32277 -74.19186 25297 ft 393 kts 36°
2026-04-30 03:46 40.34465 -74.16992 25574 ft 394 kts 36°
2026-04-30 03:47 40.36625 -74.14825 25688 ft 398 kts 36°
2026-04-30 03:47 40.38839 -74.12593 25943 ft 399 kts 36°
2026-04-30 03:47 40.41022 -74.10407 26220 ft 399 kts 36°
2026-04-30 03:47 40.43240 -74.08172 26452 ft 401 kts 36°
2026-04-30 03:48 40.45467 -74.05930 26644 ft 404 kts 36°
2026-04-30 03:48 40.47571 -74.03451 26868 ft 405 kts 50°
2026-04-30 03:48 40.49318 -74.00571 27102 ft 405 kts 51°
2026-04-30 03:48 40.51057 -73.97649 27355 ft 406 kts 52°
2026-04-30 03:49 40.52819 -73.94698 27565 ft 413 kts 52°
2026-04-30 03:49 40.54613 -73.91699 28123 ft 414 kts 52°
2026-04-30 03:49 40.56376 -73.88760 28747 ft 413 kts 52°
2026-04-30 03:49 40.58152 -73.85777 29112 ft 419 kts 52°
2026-04-30 03:50 40.59975 -73.82728 29394 ft 427 kts 51°
2026-04-30 03:50 40.61853 -73.79682 29669 ft 434 kts 45°
2026-04-30 03:50 40.64359 -73.77415 29896 ft 437 kts 21°
2026-04-30 03:50 40.67273 -73.76443 30223 ft 437 kts
2026-04-30 03:51 40.70310 -73.75909 30537 ft 443 kts
2026-04-30 03:51 40.73400 -73.75371 30850 ft 449 kts
2026-04-30 03:51 40.76474 -73.74834 31144 ft 454 kts
2026-04-30 03:51 40.79644 -73.74280 31451 ft 457 kts
2026-04-30 03:52 40.82790 -73.73730 31723 ft 461 kts
2026-04-30 03:52 40.85958 -73.73174 32003 ft 462 kts
2026-04-30 03:52 40.89163 -73.72611 32279 ft 463 kts
2026-04-30 03:52 40.92408 -73.72040 32562 ft 464 kts
2026-04-30 03:53 40.95401 -73.71510 32947 ft 461 kts
2026-04-30 03:53 40.98694 -73.70930 32954 ft 448 kts
2026-04-30 03:53 41.01738 -73.70392 32928 ft 437 kts
2026-04-30 03:53 41.04747 -73.69862 32933 ft 430 kts
2026-04-30 03:54 41.10675 -73.68815 32935 ft 429 kts
2026-04-30 03:54 41.16591 -73.67773 32928 ft 428 kts
2026-04-30 03:55 41.22502 -73.66718 32922 ft 428 kts
2026-04-30 03:55 41.28390 -73.65672 32933 ft 428 kts
2026-04-30 03:56 41.34376 -73.64612 32953 ft 446 kts
2026-04-30 03:56 41.37513 -73.64051 32953 ft 457 kts
2026-04-30 03:56 41.40696 -73.63485 32940 ft 466 kts
2026-04-30 03:57 41.47213 -73.62316 32938 ft 478 kts
2026-04-30 03:57 41.53873 -73.61123 32933 ft 482 kts
2026-04-30 03:58 41.60478 -73.59937 32922 ft 480 kts
2026-04-30 03:58 41.67078 -73.58746 32913 ft 479 kts
2026-04-30 03:59 41.73700 -73.57555 32889 ft 478 kts
2026-04-30 03:59 41.80272 -73.56370 32890 ft 479 kts
2026-04-30 04:00 41.86888 -73.55170 32862 ft 479 kts
2026-04-30 04:00 41.93437 -73.53982 32877 ft 472 kts
2026-04-30 04:01 41.99918 -73.52804 32868 ft 468 kts
2026-04-30 04:01 42.06354 -73.51632 32859 ft 467 kts
2026-04-30 04:02 42.12774 -73.50460 32853 ft 466 kts
2026-04-30 04:02 42.19231 -73.49281 32841 ft 466 kts
2026-04-30 04:03 42.25639 -73.48105 32848 ft 465 kts
2026-04-30 04:03 42.32054 -73.46928 32854 ft 464 kts
2026-04-30 04:04 42.38267 -73.45782 32868 ft 463 kts
2026-04-30 04:04 42.44679 -73.44601 32872 ft 464 kts
2026-04-30 04:05 42.51059 -73.43422 32868 ft 463 kts
2026-04-30 04:05 42.57432 -73.42240 32851 ft 464 kts
2026-04-30 04:06 42.63830 -73.41054 32863 ft 465 kts
2026-04-30 04:06 42.67051 -73.40457 32437 ft 470 kts
2026-04-30 04:06 42.70269 -73.39859 31725 ft 467 kts
2026-04-30 04:07 42.73483 -73.39267 30927 ft 464 kts
2026-04-30 04:07 42.76663 -73.38671 30112 ft 462 kts
2026-04-30 04:07 42.79826 -73.38075 29328 ft 460 kts
2026-04-30 04:08 42.86143 -73.36898 27750 ft 459 kts
2026-04-30 04:08 42.89343 -73.36299 26929 ft 458 kts
2026-04-30 04:08 42.92493 -73.35705 26155 ft 458 kts
2026-04-30 04:08 42.95629 -73.35121 25412 ft 457 kts
2026-04-30 04:09 42.98762 -73.34528 24644 ft 457 kts
2026-04-30 04:09 43.01888 -73.33526 23839 ft 457 kts 14°
2026-04-30 04:09 43.04921 -73.32405 23161 ft 454 kts 14°
2026-04-30 04:09 43.07946 -73.31281 22636 ft 447 kts 14°
2026-04-30 04:10 43.10957 -73.30177 22082 ft 440 kts 14°
2026-04-30 04:10 43.13898 -73.29088 21506 ft 434 kts 14°
2026-04-30 04:10 43.16786 -73.28024 20967 ft 429 kts 14°
2026-04-30 04:10 43.19667 -73.26964 20369 ft 425 kts 13°
2026-04-30 04:11 43.22499 -73.25921 19766 ft 421 kts 14°
2026-04-30 04:11 43.25315 -73.24881 19163 ft 418 kts 14°
2026-04-30 04:11 43.28108 -73.23849 18557 ft 415 kts 14°
2026-04-30 04:11 43.30867 -73.22819 17967 ft 412 kts 13°
2026-04-30 04:12 43.33640 -73.21800 17475 ft 406 kts 14°
2026-04-30 04:12 43.36341 -73.20803 17002 ft 400 kts 14°
2026-04-30 04:12 43.39011 -73.19815 16526 ft 395 kts 14°
2026-04-30 04:12 43.41639 -73.18838 16054 ft 391 kts 15°
2026-04-30 04:13 43.44278 -73.17854 15576 ft 386 kts 15°
2026-04-30 04:13 43.46865 -73.16889 15100 ft 382 kts 15°
2026-04-30 04:13 43.49414 -73.15942 14584 ft 379 kts 15°
2026-04-30 04:13 43.51924 -73.15004 14098 ft 374 kts 15°
2026-04-30 04:14 43.54455 -73.14062 13821 ft 377 kts 15°
2026-04-30 04:14 43.56998 -73.13110 13530 ft 386 kts 16°
2026-04-30 04:14 43.59641 -73.12122 13227 ft 389 kts 16°
2026-04-30 04:14 43.62251 -73.11144 12915 ft 389 kts 16°
2026-04-30 04:15 43.64847 -73.10171 12619 ft 386 kts 16°
2026-04-30 04:15 43.67401 -73.09214 12331 ft 381 kts 16°
2026-04-30 04:15 43.69948 -73.08257 12103 ft 376 kts 16°
2026-04-30 04:15 43.72459 -73.07315 11895 ft 372 kts 16°
2026-04-30 04:16 43.74961 -73.06375 11639 ft 368 kts 16°
2026-04-30 04:16 43.77428 -73.05447 11387 ft 364 kts 16°
2026-04-30 04:16 43.79843 -73.04537 11140 ft 360 kts 16°
2026-04-30 04:16 43.82267 -73.03623 10895 ft 357 kts 16°
2026-04-30 04:17 43.84639 -73.02731 10814 ft 354 kts 16°
2026-04-30 04:17 43.87071 -73.01812 10817 ft 366 kts 16°
2026-04-30 04:17 43.89553 -73.00874 10829 ft 379 kts 17°
2026-04-30 04:17 43.92137 -72.99895 10828 ft 382 kts 16°
2026-04-30 04:18 43.94662 -72.98940 10795 ft 374 kts 16°
2026-04-30 04:18 43.97220 -72.98292 10748 ft 366 kts 359°
2026-04-30 04:18 43.99604 -72.99097 10773 ft 351 kts 331°
2026-04-30 04:18 44.01662 -73.00877 10817 ft 339 kts 322°
2026-04-30 04:19 44.03573 -73.02711 10797 ft 332 kts 321°
2026-04-30 04:19 44.05431 -73.04526 10807 ft 324 kts 321°
2026-04-30 04:19 44.07253 -73.06313 10796 ft 317 kts 321°
2026-04-30 04:19 44.09043 -73.08070 10803 ft 310 kts 321°
2026-04-30 04:20 44.10806 -73.09800 10795 ft 303 kts 321°
2026-04-30 04:20 44.12534 -73.11504 10790 ft 311 kts 321°
2026-04-30 04:20 44.14296 -73.13237 10822 ft 312 kts 321°
2026-04-30 04:20 44.16096 -73.15009 10840 ft 315 kts 321°
2026-04-30 04:21 44.17898 -73.16787 10802 ft 319 kts 321°
2026-04-30 04:21 44.19706 -73.18570 10532 ft 322 kts 321°
2026-04-30 04:21 44.21558 -73.20397 9902 ft 326 kts 321°
2026-04-30 04:21 44.23376 -73.22192 9205 ft 320 kts 321°
2026-04-30 04:22 44.25176 -73.23967 8563 ft 313 kts 321°
2026-04-30 04:22 44.26925 -73.25698 7950 ft 306 kts 321°
2026-04-30 04:22 44.28653 -73.27406 7364 ft 299 kts 320°
2026-04-30 04:22 44.30305 -73.29046 6748 ft 293 kts 320°
2026-04-30 04:23 44.31979 -73.30708 6323 ft 293 kts 321°
2026-04-30 04:23 44.33645 -73.32363 5926 ft 293 kts 321°
2026-04-30 04:23 44.35292 -73.33999 5559 ft 293 kts 321°
2026-04-30 04:23 44.36955 -73.35651 5239 ft 291 kts 321°
2026-04-30 04:24 44.38589 -73.37279 5020 ft 291 kts 322°
2026-04-30 04:24 44.40255 -73.38936 4834 ft 295 kts 322°
2026-04-30 04:24 44.41898 -73.40567 4781 ft 286 kts 322°
2026-04-30 04:24 44.43489 -73.42145 4771 ft 274 kts 321°
2026-04-30 04:25 44.45027 -73.43678 4804 ft 268 kts 321°
2026-04-30 04:25 44.46560 -73.45216 4750 ft 271 kts 321°
2026-04-30 04:25 44.48074 -73.46722 4771 ft 262 kts 321°
2026-04-30 04:25 44.49623 -73.47989 4749 ft 259 kts 343°
2026-04-30 04:26 44.51379 -73.47889 4772 ft 249 kts 24°
2026-04-30 04:26 44.52770 -73.46585 4817 ft 237 kts 45°
2026-04-30 04:26 44.54042 -73.45077 4385 ft 243 kts 45°
2026-04-30 04:26 44.55325 -73.43543 3879 ft 245 kts 45°
2026-04-30 04:27 44.56618 -73.41994 3391 ft 245 kts 45°
2026-04-30 04:27 44.57903 -73.40453 3105 ft 234 kts 45°
2026-04-30 04:27 44.59082 -73.39041 3122 ft 222 kts 47°
2026-04-30 04:27 44.59826 -73.37249 3074 ft 209 kts 89°
2026-04-30 04:28 44.59501 -73.35389 3098 ft 195 kts 129°
2026-04-30 04:28 44.58635 -73.33922 3134 ft 195 kts 133°
2026-04-30 04:28 44.57790 -73.32442 3223 ft 195 kts 133°
2026-04-30 04:28 44.56972 -73.31047 3035 ft 178 kts 134°
2026-04-30 04:29 44.56191 -73.29748 2765 ft 168 kts 134°
2026-04-30 04:29 44.55460 -73.28546 2520 ft 158 kts 134°
2026-04-30 04:29 44.54784 -73.27445 2297 ft 142 kts 134°
2026-04-30 04:29 44.54137 -73.26395 2100 ft 142 kts 134°
2026-04-30 04:30 44.53472 -73.25325 1929 ft 147 kts 133°
2026-04-30 04:30 44.52804 -73.24243 1732 ft 148 kts 131°
2026-04-30 04:30 44.52129 -73.23147 1533 ft 149 kts 131°
2026-04-30 04:30 44.51457 -73.22056 1355 ft 147 kts 131°
2026-04-30 04:31 44.50791 -73.20978 1150 ft 144 kts 132°
2026-04-30 04:31 44.50160 -73.19955 939 ft 134 kts 132°
2026-04-30 04:31 44.49556 -73.18982 768 ft 133 kts 132°
2026-04-30 04:31 44.48954 -73.18011 598 ft 132 kts 132°
2026-04-30 04:32 44.48353 -73.17041 416 ft 132 kts 132°
2026-04-30 04:32 44.47752 -73.16074 306 ft 125 kts 132°
2026-04-30 04:32 44.47276 -73.15309 325 ft 61 kts 129°
2026-04-30 04:32 44.47138 -73.15084 329 ft 20 kts 131°
2026-04-30 04:33 44.47044 -73.15031 330 ft 14 kts 211°
2026-04-30 04:33 44.46974 -73.15110 330 ft 12 kts 221°
2026-04-30 04:33 44.46916 -73.15185 330 ft 10 kts 238°
2026-04-30 04:33 44.46901 -73.15261 331 ft 6 kts 260°
2026-04-30 04:34 44.46887 -73.15299 332 ft 2 kts 221°
2026-04-30 04:34 44.46880 -73.15305 332 ft 0 kts 208°
2026-04-30 04:34 44.46836 -73.15314 332 ft 7 kts 170°
2026-04-30 04:34 44.46804 -73.15311 332 ft 2 kts 207°
2026-04-30 04:35 44.46798 -73.15331 333 ft 2 kts 285°
2026-04-30 04:35 44.46815 -73.15361 333 ft 2 kts 315°
2026-04-30 04:35 44.46818 -73.15365 333 ft 0 kts 316°